Location: Arrodets-la-Barthe
(43.0306°N, 0.2829°E)
Time: 02:30:08
(UTC+00:00)

Cosmos 2344 - Pass Details

Date: 07 June 2022
Orbit: 1228 x 3015 km, 63.3° (Epoch: 03 July)

Event Time Altitude Azimuth Distance (km) Brightness Sun altitude
Rises 01:23:11 0° 322° (NW) 4,371 6.8 -21.4°
Reaches altitude 10° 01:26:02 10° 330° (NNW) 3,523 6.4 -21.2°
Maximum altitude 01:34:09 41° 40° (NE) 2,317 5.4 -20.6°
Drops below altitude 10° 01:44:57 10° 108° (ESE) 4,683 6.6 -19.8°
Sets 01:49:22 0° 115° (ESE) 5,959 7.1 -19.4°
